Time,TemperatureF,DewpointF,PressureIn,WindDirection,WindDirectionDegrees,WindSpeedMPH,WindSpeedGustMPH,Humidity,HourlyPrecipIn,Conditions,Clouds,dailyrainin,SoftwareType,DateUTC
2013-05-02 00:03:00,65.3,58.3,30.00,South,169,3.0,4.0,78,0.00,,,0.00,Wunderground v.1.15,2013-05-02 05:03:00,
2013-05-02 00:08:00,65.1,58.4,30.00,South,169,3.0,5.0,79,0.00,,,0.00,Wunderground v.1.15,2013-05-02 05:08:00,
2013-05-02 00:13:00,65.2,58.5,30.00,SSE,154,3.0,6.0,79,0.00,,,0.00,Wunderground v.1.15,2013-05-02 05:13:00,
2013-05-02 00:19:00,65.6,58.6,30.00,ESE,120,4.0,8.0,78,0.00,,,0.00,Wunderground v.1.15,2013-05-02 05:19:00,
2013-05-02 00:25:00,65.8,58.4,30.00,SE,132,5.0,9.0,77,0.00,,,0.00,Wunderground v.1.15,2013-05-02 05:25:00,
2013-05-02 00:30:00,65.8,58.4,30.00,South,175,6.0,6.0,77,0.00,,,0.00,Wunderground v.1.15,2013-05-02 05:30:00,
2013-05-02 00:35:00,65.9,58.5,30.00,SSE,149,6.0,9.0,77,0.00,,,0.00,Wunderground v.1.15,2013-05-02 05:35:00,
2013-05-02 00:40:00,65.7,58.3,29.99,SSE,157,7.0,7.0,77,0.00,,,0.00,Wunderground v.1.15,2013-05-02 05:40:00,
2013-05-02 00:46:00,65.6,58.2,29.99,SSE,158,6.0,11.0,77,0.00,,,0.00,Wunderground v.1.15,2013-05-02 05:46:00,
2013-05-02 00:52:00,65.4,58.0,29.99,ESE,120,6.0,8.0,77,0.00,,,0.00,Wunderground v.1.15,2013-05-02 05:52:00,
2013-05-02 00:57:00,65.3,58.3,29.99,SE,129,5.0,8.0,78,0.00,,,0.00,Wunderground v.1.15,2013-05-02 05:57:00,
2013-05-02 01:03:00,65.2,58.2,29.99,SSE,162,6.0,7.0,78,0.00,,,0.00,Wunderground v.1.15,2013-05-02 06:03:00,
2013-05-02 01:08:00,65.0,58.3,29.99,SSE,156,6.0,7.0,79,0.00,,,0.00,Wunderground v.1.15,2013-05-02 06:08:00,
2013-05-02 01:13:00,64.8,58.1,29.99,SE,127,5.0,7.0,79,0.00,,,0.00,Wunderground v.1.15,2013-05-02 06:13:00,
2013-05-02 01:19:00,64.6,58.3,29.99,SE,143,5.0,9.0,80,0.00,,,0.00,Wunderground v.1.15,2013-05-02 06:19:00,
2013-05-02 01:25:00,64.4,58.1,29.99,ESE,120,5.0,8.0,80,0.00,,,0.00,Wunderground v.1.15,2013-05-02 06:25:00,
2013-05-02 01:30:00,64.4,58.1,29.98,SE,132,5.0,5.0,80,0.00,,,0.00,Wunderground v.1.15,2013-05-02 06:30:00,
2013-05-02 01:36:00,64.3,58.3,29.98,SSE,168,5.0,8.0,81,0.00,,,0.00,Wunderground v.1.15,2013-05-02 06:36:00,
2013-05-02 01:41:00,64.1,58.1,29.98,South,185,5.0,5.0,81,0.00,,,0.00,Wunderground v.1.15,2013-05-02 06:41:00,
2013-05-02 01:46:00,63.9,58.3,29.98,SE,146,3.0,5.0,82,0.00,,,0.00,Wunderground v.1.15,2013-05-02 06:46:00,
2013-05-02 01:52:00,63.8,58.2,29.98,SSE,162,3.0,7.0,82,0.00,,,0.00,Wunderground v.1.15,2013-05-02 06:52:00,
2013-05-02 01:57:00,63.6,58.0,29.98,SSE,152,4.0,7.0,82,0.00,,,0.00,Wunderground v.1.15,2013-05-02 06:57:00,
2013-05-02 02:02:00,63.4,58.1,29.98,SE,139,5.0,5.0,83,0.00,,,0.00,Wunderground v.1.15,2013-05-02 07:02:00,
2013-05-02 02:07:00,63.2,57.9,29.98,SSE,150,4.0,5.0,83,0.00,,,0.00,Wunderground v.1.15,2013-05-02 07:07:00,
2013-05-02 02:13:00,63.0,58.1,29.98,SE,130,3.0,6.0,84,0.00,,,0.00,Wunderground v.1.15,2013-05-02 07:13:00,
2013-05-02 02:18:00,62.9,58.0,29.98,SE,140,3.0,6.0,84,0.00,,,0.00,Wunderground v.1.15,2013-05-02 07:18:00,
2013-05-02 02:23:00,62.8,58.2,29.98,SE,144,3.0,4.0,85,0.00,,,0.00,Wunderground v.1.15,2013-05-02 07:23:00,
2013-05-02 02:29:00,62.6,58.0,29.98,SE,137,2.0,5.0,85,0.00,,,0.00,Wunderground v.1.15,2013-05-02 07:29:00,
2013-05-02 02:35:00,62.5,57.9,29.98,SE,140,2.0,5.0,85,0.00,,,0.00,Wunderground v.1.15,2013-05-02 07:35:00,
2013-05-02 02:40:00,62.4,57.8,29.98,SE,143,2.0,2.0,85,0.00,,,0.00,Wunderground v.1.15,2013-05-02 07:40:00,
2013-05-02 02:45:00,62.1,57.9,29.98,SE,143,1.0,2.0,86,0.00,,,0.00,Wunderground v.1.15,2013-05-02 07:45:00,
2013-05-02 02:50:00,61.9,58.0,29.98,SE,143,0.0,0.0,87,0.00,,,0.00,Wunderground v.1.15,2013-05-02 07:50:00,
2013-05-02 02:55:00,61.7,57.8,29.98,SE,143,0.0,0.0,87,0.00,,,0.00,Wunderground v.1.15,2013-05-02 07:55:00,
2013-05-02 03:01:00,61.1,57.2,29.99,SE,143,0.0,0.0,87,0.00,,,0.00,Wunderground v.1.15,2013-05-02 08:01:00,
2013-05-02 03:06:00,60.5,56.9,30.00,SE,143,0.0,0.0,88,0.00,,,0.00,Wunderground v.1.15,2013-05-02 08:06:00,
2013-05-02 03:12:00,59.8,56.6,30.00,SSE,156,0.0,1.0,89,0.00,,,0.00,Wunderground v.1.15,2013-05-02 08:12:00,
2013-05-02 03:17:00,59.3,56.4,30.00,SSE,156,1.0,1.0,90,0.00,,,0.00,Wunderground v.1.15,2013-05-02 08:17:00,
2013-05-02 03:22:00,59.3,56.7,30.01,NW,319,1.0,2.0,91,0.00,,,0.00,Wunderground v.1.15,2013-05-02 08:22:00,
2013-05-02 03:27:00,59.2,56.6,30.01,NW,319,1.0,2.0,91,0.00,,,0.00,Wunderground v.1.15,2013-05-02 08:27:00,
2013-05-02 03:32:00,59.2,56.6,30.01,NW,319,0.0,0.0,91,0.00,,,0.00,Wunderground v.1.15,2013-05-02 08:32:00,
2013-05-02 03:38:00,59.2,56.6,30.01,NW,319,0.0,0.0,91,0.00,,,0.00,Wunderground v.1.15,2013-05-02 08:38:00,
2013-05-02 03:43:00,59.1,56.5,30.01,NW,319,0.0,0.0,91,0.00,,,0.00,Wunderground v.1.15,2013-05-02 08:43:00,
2013-05-02 03:48:00,59.0,56.7,30.02,NW,319,0.0,0.0,92,0.00,,,0.00,Wunderground v.1.15,2013-05-02 08:48:00,
2013-05-02 03:54:00,59.0,56.7,30.02,NW,314,0.0,0.0,92,0.00,,,0.00,Wunderground v.1.15,2013-05-02 08:54:00,
2013-05-02 04:00:00,59.1,56.8,30.02,NW,313,0.0,0.0,92,0.00,,,0.00,Wunderground v.1.15,2013-05-02 09:00:00,
2013-05-02 04:05:00,59.0,56.7,30.02,NW,313,0.0,1.0,92,0.00,,,0.00,Wunderground v.1.15,2013-05-02 09:05:00,
2013-05-02 04:10:00,58.9,56.6,30.02,NW,313,0.0,0.0,92,0.00,,,0.00,Wunderground v.1.15,2013-05-02 09:10:00,
2013-05-02 04:16:00,58.8,56.5,30.02,NW,313,0.0,0.0,92,0.00,,,0.00,Wunderground v.1.15,2013-05-02 09:16:00,
2013-05-02 04:21:00,58.8,56.5,30.02,NW,313,0.0,0.0,92,0.00,,,0.00,Wunderground v.1.15,2013-05-02 09:21:00,
2013-05-02 04:26:00,58.8,56.5,30.02,NW,313,0.0,3.0,92,0.00,,,0.00,Wunderground v.1.15,2013-05-02 09:26:00,
2013-05-02 04:32:00,58.9,56.6,30.02,NW,313,0.0,0.0,92,0.00,,,0.00,Wunderground v.1.15,2013-05-02 09:32:00,
2013-05-02 04:37:00,59.0,56.7,30.03,NW,313,0.0,0.0,92,0.00,,,0.00,Wunderground v.1.15,2013-05-02 09:37:00,
2013-05-02 04:43:00,59.0,56.7,30.03,NW,313,0.0,0.0,92,0.00,,,0.00,Wunderground v.1.15,2013-05-02 09:43:00,
2013-05-02 04:48:00,59.1,56.8,30.02,NW,313,0.0,0.0,92,0.00,,,0.00,Wunderground v.1.15,2013-05-02 09:48:00,
2013-05-02 04:53:00,59.1,56.8,30.02,NW,324,0.0,0.0,92,0.00,,,0.00,Wunderground v.1.15,2013-05-02 09:53:00,
2013-05-02 04:58:00,59.3,57.0,30.02,NW,325,0.0,0.0,92,0.00,,,0.00,Wunderground v.1.15,2013-05-02 09:58:00,
2013-05-02 05:04:00,59.4,57.1,30.02,NW,325,0.0,0.0,92,0.00,,,0.00,Wunderground v.1.15,2013-05-02 10:04:00,
2013-05-02 05:10:00,59.4,57.1,30.02,NW,325,0.0,0.0,92,0.00,,,0.00,Wunderground v.1.15,2013-05-02 10:10:00,
2013-05-02 05:15:00,59.3,56.7,30.02,NW,325,0.0,0.0,91,0.00,,,0.00,Wunderground v.1.15,2013-05-02 10:15:00,
2013-05-02 05:20:00,59.2,56.6,30.03,NNW,327,0.0,0.0,91,0.00,,,0.00,Wunderground v.1.15,2013-05-02 10:20:00,
2013-05-02 05:26:00,59.0,56.7,30.03,NW,324,1.0,3.0,92,0.00,,,0.00,Wunderground v.1.15,2013-05-02 10:26:00,
2013-05-02 05:31:00,59.0,56.7,30.03,NNW,329,1.0,1.0,92,0.00,,,0.00,Wunderground v.1.15,2013-05-02 10:31:00,
2013-05-02 05:36:00,58.9,56.6,30.03,NNW,330,0.0,1.0,92,0.00,,,0.00,Wunderground v.1.15,2013-05-02 10:36:00,
2013-05-02 05:42:00,58.7,56.4,30.04,NW,324,1.0,2.0,92,0.00,,,0.00,Wunderground v.1.15,2013-05-02 10:42:00,
2013-05-02 05:47:00,58.5,56.2,30.04,North,5,2.0,7.0,92,0.00,,,0.00,Wunderground v.1.15,2013-05-02 10:47:00,
2013-05-02 05:52:00,58.2,55.9,30.04,North,355,2.0,3.0,92,0.00,,,0.00,Wunderground v.1.15,2013-05-02 10:52:00,
2013-05-02 05:58:00,57.6,55.0,30.05,NNE,26,2.0,4.0,91,0.00,,,0.00,Wunderground v.1.15,2013-05-02 10:58:00,
2013-05-02 06:04:00,56.9,54.0,30.05,NNW,342,3.0,9.0,90,0.00,,,0.00,Wunderground v.1.15,2013-05-02 11:04:00,
2013-05-02 06:09:00,56.1,52.6,30.06,NW,323,4.0,9.0,88,0.00,,,0.00,Wunderground v.1.15,2013-05-02 11:09:00,
2013-05-02 06:14:00,55.5,51.7,30.06,North,360,4.0,7.0,87,0.00,,,0.00,Wunderground v.1.15,2013-05-02 11:14:00,
2013-05-02 06:19:00,55.2,51.4,30.06,North,350,3.0,7.0,87,0.00,,,0.00,Wunderground v.1.15,2013-05-02 11:19:00,
2013-05-02 06:25:00,54.8,50.7,30.06,NW,323,3.0,6.0,86,0.00,,,0.00,Wunderground v.1.15,2013-05-02 11:25:00,
2013-05-02 06:30:00,54.2,50.1,30.06,NNE,28,3.0,3.0,86,0.00,,,0.00,Wunderground v.1.15,2013-05-02 11:30:00,
2013-05-02 06:35:00,53.9,49.8,30.07,North,5,3.0,7.0,86,0.00,,,0.00,Wunderground v.1.15,2013-05-02 11:35:00,
2013-05-02 06:41:00,53.7,49.6,30.07,North,355,2.0,3.0,86,0.00,,,0.00,Wunderground v.1.15,2013-05-02 11:41:00,
2013-05-02 06:46:00,53.5,49.4,30.07,North,349,3.0,5.0,86,0.00,,,0.00,Wunderground v.1.15,2013-05-02 11:46:00,
2013-05-02 06:51:00,53.2,48.8,30.08,NNW,329,4.0,8.0,85,0.00,,,0.00,Wunderground v.1.15,2013-05-02 11:51:00,
2013-05-02 06:56:00,52.8,48.4,30.08,NNW,333,4.0,8.0,85,0.00,,,0.00,Wunderground v.1.15,2013-05-02 11:56:00,
2013-05-02 07:02:00,52.3,47.9,30.08,NW,321,4.0,7.0,85,0.00,,,0.00,Wunderground v.1.15,2013-05-02 12:02:00,
2013-05-02 07:07:00,51.9,47.5,30.08,North,5,4.0,7.0,85,0.00,,,0.00,Wunderground v.1.15,2013-05-02 12:07:00,
2013-05-02 07:12:00,51.6,47.2,30.08,NW,323,4.0,6.0,85,0.00,,,0.00,Wunderground v.1.15,2013-05-02 12:12:00,
2013-05-02 07:17:00,51.2,46.8,30.08,NNW,344,4.0,9.0,85,0.00,,,0.00,Wunderground v.1.15,2013-05-02 12:17:00,
2013-05-02 07:23:00,51.0,47.0,30.08,NNW,348,3.0,3.0,86,0.00,,,0.00,Wunderground v.1.15,2013-05-02 12:23:00,
2013-05-02 07:28:00,50.8,46.8,30.09,North,355,2.0,4.0,86,0.00,,,0.00,Wunderground v.1.15,2013-05-02 12:28:00,
2013-05-02 07:34:00,50.9,46.9,30.09,NW,324,1.0,4.0,86,0.00,,,0.00,Wunderground v.1.15,2013-05-02 12:34:00,
2013-05-02 07:39:00,51.0,47.0,30.09,North,355,1.0,4.0,86,0.00,,,0.00,Wunderground v.1.15,2013-05-02 12:39:00,
2013-05-02 07:45:00,50.9,46.6,30.09,NNE,15,1.0,1.0,85,0.00,,,0.00,Wunderground v.1.15,2013-05-02 12:45:00,
2013-05-02 07:50:00,50.8,46.5,30.09,NNE,12,1.0,1.0,85,0.00,,,0.00,Wunderground v.1.15,2013-05-02 12:50:00,
2013-05-02 07:56:00,51.1,46.7,30.09,North,5,1.0,3.0,85,0.00,,,0.00,Wunderground v.1.15,2013-05-02 12:56:00,
2013-05-02 08:01:00,51.0,46.6,30.09,NNE,17,1.0,2.0,85,0.00,,,0.00,Wunderground v.1.15,2013-05-02 13:01:00,
2013-05-02 08:06:00,51.1,46.7,30.09,NE,51,1.0,2.0,85,0.00,,,0.00,Wunderground v.1.15,2013-05-02 13:06:00,
2013-05-02 08:12:00,51.3,46.9,30.10,WNW,288,1.0,3.0,85,0.00,,,0.00,Wunderground v.1.15,2013-05-02 13:12:00,
2013-05-02 08:17:00,51.7,47.0,30.10,NNE,17,1.0,5.0,84,0.00,,,0.00,Wunderground v.1.15,2013-05-02 13:17:00,
2013-05-02 08:22:00,51.5,46.5,30.09,WNW,298,2.0,3.0,83,0.00,,,0.00,Wunderground v.1.15,2013-05-02 13:22:00,
2013-05-02 08:28:00,52.4,47.1,30.10,NW,306,2.0,4.0,82,0.00,,,0.00,Wunderground v.1.15,2013-05-02 13:28:00,
2013-05-02 08:33:00,52.2,46.9,30.10,NW,324,2.0,4.0,82,0.00,,,0.00,Wunderground v.1.15,2013-05-02 13:33:00,
2013-05-02 08:38:00,52.3,46.6,30.10,NW,310,3.0,6.0,81,0.00,,,0.00,Wunderground v.1.15,2013-05-02 13:38:00,
2013-05-02 08:43:00,52.2,46.2,30.10,NNW,336,2.0,3.0,80,0.00,,,0.00,Wunderground v.1.15,2013-05-02 13:43:00,
2013-05-02 08:49:00,52.5,46.5,30.10,North,355,2.0,6.0,80,0.00,,,0.00,Wunderground v.1.15,2013-05-02 13:49:00,
2013-05-02 08:54:00,53.8,47.4,30.10,North,360,1.0,3.0,79,0.00,,,0.00,Wunderground v.1.15,2013-05-02 13:54:00,
2013-05-02 08:59:00,53.4,47.0,30.10,ENE,71,1.0,3.0,79,0.00,,,0.00,Wunderground v.1.15,2013-05-02 13:59:00,
2013-05-02 09:05:00,54.5,48.5,30.11,North,355,1.0,5.0,80,0.00,,,0.00,Wunderground v.1.15,2013-05-02 14:05:00,
2013-05-02 09:10:00,54.1,47.0,30.11,NNW,339,1.0,1.0,77,0.00,,,0.00,Wunderground v.1.15,2013-05-02 14:10:00,
2013-05-02 09:15:00,55.1,47.7,30.10,NNW,331,1.0,4.0,76,0.00,,,0.00,Wunderground v.1.15,2013-05-02 14:15:00,
2013-05-02 09:21:00,55.6,48.2,30.11,WNW,284,1.0,1.0,76,0.00,,,0.00,Wunderground v.1.15,2013-05-02 14:21:00,
2013-05-02 09:26:00,56.4,48.2,30.10,NNE,23,1.0,1.0,74,0.00,,,0.00,Wunderground v.1.15,2013-05-02 14:26:00,
2013-05-02 09:32:00,56.4,47.9,30.10,North,360,1.0,1.0,73,0.00,,,0.00,Wunderground v.1.15,2013-05-02 14:32:00,
2013-05-02 09:37:00,56.3,48.1,30.10,NW,310,1.0,6.0,74,0.00,,,0.00,Wunderground v.1.15,2013-05-02 14:37:00,
2013-05-02 09:43:00,56.7,48.1,30.11,North,355,2.0,2.0,73,0.00,,,0.00,Wunderground v.1.15,2013-05-02 14:43:00,
2013-05-02 09:48:00,56.5,47.9,30.10,WNW,289,1.0,5.0,73,0.00,,,0.00,Wunderground v.1.15,2013-05-02 14:48:00,
2013-05-02 09:53:00,55.9,47.7,30.10,NNW,336,1.0,2.0,74,0.00,,,0.00,Wunderground v.1.15,2013-05-02 14:53:00,
2013-05-02 09:59:00,55.5,48.1,30.10,NNW,338,2.0,6.0,76,0.00,,,0.00,Wunderground v.1.15,2013-05-02 14:59:00,
2013-05-02 10:05:00,55.5,47.7,30.10,North,349,2.0,3.0,75,0.00,,,0.00,Wunderground v.1.15,2013-05-02 15:05:00,
2013-05-02 10:10:00,55.3,47.9,30.11,NW,313,2.0,3.0,76,0.00,,,0.00,Wunderground v.1.15,2013-05-02 15:10:00,
2013-05-02 10:16:00,54.6,47.2,30.12,NE,44,4.0,6.0,76,0.00,,,0.00,Wunderground v.1.15,2013-05-02 15:16:00,
2013-05-02 10:21:00,55.0,47.6,30.12,NW,325,3.0,6.0,76,0.00,,,0.00,Wunderground v.1.15,2013-05-02 15:21:00,
2013-05-02 10:26:00,55.0,47.2,30.12,North,350,3.0,6.0,75,0.00,,,0.00,Wunderground v.1.15,2013-05-02 15:26:00,
2013-05-02 10:32:00,55.0,47.2,30.12,West,270,3.0,6.0,75,0.00,,,0.00,Wunderground v.1.15,2013-05-02 15:32:00,
2013-05-02 10:37:00,54.4,46.6,30.12,NNE,13,3.0,6.0,75,0.00,,,0.00,Wunderground v.1.15,2013-05-02 15:37:00,
2013-05-02 10:43:00,53.8,46.4,30.13,WNW,293,4.0,5.0,76,0.00,,,0.00,Wunderground v.1.15,2013-05-02 15:43:00,
2013-05-02 10:48:00,53.9,46.9,30.13,NW,322,3.0,5.0,77,0.00,,,0.00,Wunderground v.1.15,2013-05-02 15:48:00,
2013-05-02 10:53:00,54.5,46.7,30.13,North,355,3.0,5.0,75,0.00,,,0.00,Wunderground v.1.15,2013-05-02 15:53:00,
2013-05-02 10:59:00,53.8,46.4,30.14,North,9,3.0,6.0,76,0.00,,,0.00,Wunderground v.1.15,2013-05-02 15:59:00,
2013-05-02 11:05:00,53.3,45.9,30.14,WNW,283,4.0,12.0,76,0.00,,,0.00,Wunderground v.1.15,2013-05-02 16:05:00,
2013-05-02 11:10:00,52.1,45.1,30.14,NW,313,6.0,6.0,77,0.00,,,0.00,Wunderground v.1.15,2013-05-02 16:10:00,
2013-05-02 11:15:00,51.7,45.4,30.14,NW,325,6.0,7.0,79,0.00,,,0.00,Wunderground v.1.15,2013-05-02 16:15:00,
2013-05-02 11:21:00,51.4,44.8,30.14,West,277,5.0,5.0,78,0.00,,,0.00,Wunderground v.1.15,2013-05-02 16:21:00,
2013-05-02 11:26:00,50.6,44.3,30.14,NNW,348,5.0,6.0,79,0.00,,,0.00,Wunderground v.1.15,2013-05-02 16:26:00,
2013-05-02 11:32:00,50.5,44.2,30.15,NNW,330,5.0,7.0,79,0.00,,,0.00,Wunderground v.1.15,2013-05-02 16:32:00,
2013-05-02 11:37:00,50.5,44.6,30.14,NNW,330,4.0,7.0,80,0.00,,,0.00,Wunderground v.1.15,2013-05-02 16:37:00,
2013-05-02 11:42:00,50.7,44.8,30.14,NW,325,3.0,4.0,80,0.00,,,0.00,Wunderground v.1.15,2013-05-02 16:42:00,
2013-05-02 11:48:00,50.8,44.9,30.14,NW,326,3.0,6.0,80,0.00,,,0.00,Wunderground v.1.15,2013-05-02 16:48:00,
2013-05-02 11:53:00,50.4,44.5,30.14,NNE,25,3.0,7.0,80,0.00,,,0.00,Wunderground v.1.15,2013-05-02 16:53:00,
2013-05-02 11:58:00,49.9,44.3,30.14,North,355,4.0,8.0,81,0.00,,,0.00,Wunderground v.1.15,2013-05-02 16:58:00,
2013-05-02 12:03:00,49.7,44.1,30.14,NW,316,4.0,5.0,81,0.00,,,0.00,Wunderground v.1.15,2013-05-02 17:03:00,
2013-05-02 12:09:00,50.0,44.4,30.14,NW,323,3.0,5.0,81,0.00,,,0.00,Wunderground v.1.15,2013-05-02 17:09:00,
2013-05-02 12:14:00,50.9,45.3,30.14,NE,34,2.0,4.0,81,0.00,,,0.00,Wunderground v.1.15,2013-05-02 17:14:00,
2013-05-02 12:19:00,50.6,44.7,30.13,North,355,2.0,5.0,80,0.00,,,0.00,Wunderground v.1.15,2013-05-02 17:19:00,
2013-05-02 12:25:00,50.5,44.6,30.13,NNW,346,2.0,6.0,80,0.00,,,0.00,Wunderground v.1.15,2013-05-02 17:25:00,
2013-05-02 12:30:00,50.5,44.6,30.13,NNE,30,2.0,2.0,80,0.00,,,0.00,Wunderground v.1.15,2013-05-02 17:30:00,
2013-05-02 12:35:00,50.8,44.9,30.13,NE,37,2.0,5.0,80,0.00,,,0.00,Wunderground v.1.15,2013-05-02 17:35:00,
2013-05-02 12:41:00,50.8,44.9,30.13,NNW,330,2.0,2.0,80,0.00,,,0.00,Wunderground v.1.15,2013-05-02 17:41:00,
2013-05-02 12:46:00,50.5,44.6,30.13,NW,313,3.0,6.0,80,0.00,,,0.00,Wunderground v.1.15,2013-05-02 17:46:00,
2013-05-02 12:51:00,50.3,44.4,30.13,NNW,327,4.0,7.0,80,0.00,,,0.00,Wunderground v.1.15,2013-05-02 17:51:00,
2013-05-02 12:57:00,50.2,44.3,30.13,NNW,347,4.0,7.0,80,0.00,,,0.00,Wunderground v.1.15,2013-05-02 17:57:00,
2013-05-02 13:02:00,50.3,44.7,30.13,North,5,3.0,3.0,81,0.00,,,0.00,Wunderground v.1.15,2013-05-02 18:02:00,
2013-05-02 13:07:00,50.7,45.1,30.13,North,5,1.0,3.0,81,0.00,,,0.00,Wunderground v.1.15,2013-05-02 18:07:00,
2013-05-02 13:13:00,50.8,44.9,30.13,NNE,18,1.0,3.0,80,0.00,,,0.00,Wunderground v.1.15,2013-05-02 18:13:00,
2013-05-02 13:18:00,50.7,44.8,30.13,North,9,2.0,3.0,80,0.00,,,0.00,Wunderground v.1.15,2013-05-02 18:18:00,
2013-05-02 13:24:00,50.5,44.6,30.13,NW,316,2.0,5.0,80,0.00,,,0.00,Wunderground v.1.15,2013-05-02 18:24:00,
2013-05-02 13:30:00,50.5,44.6,30.13,North,360,3.0,3.0,80,0.00,,,0.00,Wunderground v.1.15,2013-05-02 18:30:00,
2013-05-02 13:35:00,50.8,44.9,30.13,NNW,329,3.0,4.0,80,0.00,,,0.00,Wunderground v.1.15,2013-05-02 18:35:00,
2013-05-02 13:40:00,51.2,44.9,30.13,North,350,2.0,2.0,79,0.00,,,0.00,Wunderground v.1.15,2013-05-02 18:40:00,
2013-05-02 13:45:00,51.2,44.9,30.13,NW,325,2.0,5.0,79,0.00,,,0.00,Wunderground v.1.15,2013-05-02 18:45:00,
2013-05-02 13:51:00,51.2,44.9,30.13,WNW,303,2.0,2.0,79,0.00,,,0.00,Wunderground v.1.15,2013-05-02 18:51:00,
2013-05-02 13:56:00,51.0,44.7,30.13,North,355,2.0,4.0,79,0.00,,,0.00,Wunderground v.1.15,2013-05-02 18:56:00,
2013-05-02 14:01:00,50.8,44.9,30.13,NNE,13,3.0,7.0,80,0.00,,,0.00,Wunderground v.1.15,2013-05-02 19:01:00,
2013-05-02 14:07:00,50.5,44.6,30.13,NNE,23,3.0,8.0,80,0.00,,,0.00,Wunderground v.1.15,2013-05-02 19:07:00,
2013-05-02 14:12:00,50.2,44.3,30.13,West,281,3.0,5.0,80,0.00,,,0.00,Wunderground v.1.15,2013-05-02 19:12:00,
2013-05-02 14:17:00,49.9,44.3,30.13,WNW,293,4.0,7.0,81,0.00,,,0.00,Wunderground v.1.15,2013-05-02 19:17:00,
2013-05-02 14:22:00,49.8,44.2,30.13,NNE,27,4.0,7.0,81,0.00,,,0.00,Wunderground v.1.15,2013-05-02 19:22:00,
2013-05-02 14:28:00,49.4,44.1,30.14,NW,325,3.0,7.0,82,0.00,,,0.00,Wunderground v.1.15,2013-05-02 19:28:00,
2013-05-02 14:33:00,49.3,44.0,30.14,NNW,344,3.0,4.0,82,0.00,,,0.00,Wunderground v.1.15,2013-05-02 19:33:00,
2013-05-02 14:38:00,49.4,44.1,30.14,NE,51,3.0,5.0,82,0.00,,,0.00,Wunderground v.1.15,2013-05-02 19:38:00,
2013-05-02 14:44:00,49.4,44.1,30.14,NW,312,3.0,5.0,82,0.00,,,0.00,Wunderground v.1.15,2013-05-02 19:44:00,
2013-05-02 14:49:00,48.9,44.0,30.14,WNW,302,4.0,6.0,83,0.00,,,0.00,Wunderground v.1.15,2013-05-02 19:49:00,
2013-05-02 14:54:00,48.8,43.9,30.14,North,5,4.0,7.0,83,0.00,,,0.00,Wunderground v.1.15,2013-05-02 19:54:00,
2013-05-02 15:00:00,48.8,44.2,30.14,NW,310,3.0,3.0,84,0.00,,,0.00,Wunderground v.1.15,2013-05-02 20:00:00,
2013-05-02 15:05:00,48.9,44.3,30.14,NNW,344,3.0,6.0,84,0.00,,,0.00,Wunderground v.1.15,2013-05-02 20:05:00,
2013-05-02 15:10:00,48.5,43.6,30.14,WNW,288,4.0,4.0,83,0.00,,,0.00,Wunderground v.1.15,2013-05-02 20:10:00,
2013-05-02 15:15:00,48.2,43.6,30.14,North,9,5.0,5.0,84,0.00,,,0.00,Wunderground v.1.15,2013-05-02 20:15:00,
2013-05-02 15:21:00,48.0,43.4,30.14,NW,324,4.0,12.0,84,0.00,,,0.00,Wunderground v.1.15,2013-05-02 20:21:00,
2013-05-02 15:26:00,47.7,43.4,30.14,NNW,336,4.0,12.0,85,0.00,,,0.00,Wunderground v.1.15,2013-05-02 20:26:00,
2013-05-02 15:31:00,47.3,43.0,30.14,NW,321,4.0,5.0,85,0.00,,,0.00,Wunderground v.1.15,2013-05-02 20:31:00,
2013-05-02 15:37:00,47.2,43.2,30.14,West,281,5.0,8.0,86,0.00,,,0.00,Wunderground v.1.15,2013-05-02 20:37:00,
2013-05-02 15:42:00,47.1,43.4,30.14,NNW,344,4.0,6.0,87,0.00,,,0.00,Wunderground v.1.15,2013-05-02 20:42:00,
2013-05-02 15:47:00,46.6,42.9,30.14,NNE,13,4.0,8.0,87,0.00,,,0.00,Wunderground v.1.15,2013-05-02 20:47:00,
2013-05-02 15:53:00,46.2,42.8,30.14,North,360,4.0,7.0,88,0.00,,,0.00,Wunderground v.1.15,2013-05-02 20:53:00,
2013-05-02 15:58:00,46.0,42.6,30.14,NW,308,3.0,8.0,88,0.00,,,0.00,Wunderground v.1.15,2013-05-02 20:58:00,
2013-05-02 16:03:00,45.8,42.7,30.14,NNW,348,3.0,7.0,89,0.00,,,0.00,Wunderground v.1.15,2013-05-02 21:03:00,
2013-05-02 16:09:00,45.3,42.2,30.14,WNW,293,5.0,12.0,89,0.00,,,0.00,Wunderground v.1.15,2013-05-02 21:09:00,
2013-05-02 16:14:00,45.0,42.2,30.14,WNW,297,5.0,11.0,90,0.00,,,0.00,Wunderground v.1.15,2013-05-02 21:14:00,
2013-05-02 16:20:00,44.7,41.9,30.14,NW,306,5.0,5.0,90,0.00,,,0.00,Wunderground v.1.15,2013-05-02 21:20:00,
2013-05-02 16:25:00,44.5,42.0,30.14,NW,307,4.0,7.0,91,0.00,,,0.00,Wunderground v.1.15,2013-05-02 21:25:00,
2013-05-02 16:30:00,44.4,41.9,30.14,NW,323,4.0,4.0,91,0.00,,,0.01,Wunderground v.1.15,2013-05-02 21:30:00,
2013-05-02 16:36:00,44.3,42.1,30.14,NNW,344,4.0,6.0,92,0.00,,,0.01,Wunderground v.1.15,2013-05-02 21:36:00,
2013-05-02 16:41:00,44.3,42.1,30.14,NNW,344,3.0,4.0,92,0.04,,,0.02,Wunderground v.1.15,2013-05-02 21:41:00,
2013-05-02 16:47:00,44.1,41.9,30.14,NNE,30,3.0,5.0,92,0.04,,,0.02,Wunderground v.1.15,2013-05-02 21:47:00,
2013-05-02 16:52:00,43.9,41.7,30.14,WNW,289,3.0,4.0,92,0.04,,,0.02,Wunderground v.1.15,2013-05-02 21:52:00,
2013-05-02 16:58:00,44.0,41.8,30.14,North,5,2.0,4.0,92,0.00,,,0.02,Wunderground v.1.15,2013-05-02 21:58:00,
2013-05-02 17:03:00,44.0,41.8,30.14,NW,315,2.0,4.0,92,0.00,,,0.02,Wunderground v.1.15,2013-05-02 22:03:00,
2013-05-02 17:09:00,43.9,42.0,30.14,NW,323,2.0,4.0,93,0.00,,,0.03,Wunderground v.1.15,2013-05-02 22:09:00,
2013-05-02 17:15:00,43.8,41.9,30.14,NNW,333,2.0,5.0,93,0.14,,,0.04,Wunderground v.1.15,2013-05-02 22:15:00,
2013-05-02 17:21:00,43.6,41.7,30.14,NW,322,4.0,4.0,93,0.08,,,0.05,Wunderground v.1.15,2013-05-02 22:21:00,
2013-05-02 17:26:00,43.3,41.4,30.14,North,11,4.0,5.0,93,0.13,,,0.06,Wunderground v.1.15,2013-05-02 22:26:00,
2013-05-02 17:32:00,43.3,41.4,30.14,North,360,3.0,4.0,93,0.08,,,0.06,Wunderground v.1.15,2013-05-02 22:32:00,
2013-05-02 17:37:00,43.0,41.1,30.14,North,5,3.0,7.0,93,0.05,,,0.06,Wunderground v.1.15,2013-05-02 22:37:00,
2013-05-02 17:43:00,42.6,40.7,30.15,NNW,333,4.0,8.0,93,0.00,,,0.06,Wunderground v.1.15,2013-05-02 22:43:00,
2013-05-02 17:49:00,42.3,40.4,30.15,NNE,30,4.0,8.0,93,0.00,,,0.06,Wunderground v.1.15,2013-05-02 22:49:00,
2013-05-02 17:54:00,42.1,40.2,30.15,NNW,348,4.0,5.0,93,0.00,,,0.06,Wunderground v.1.15,2013-05-02 22:54:00,
2013-05-02 17:59:00,41.9,40.0,30.15,NNW,344,4.0,5.0,93,0.00,,,0.06,Wunderground v.1.15,2013-05-02 22:59:00,
2013-05-02 18:04:00,41.9,40.0,30.15,North,349,3.0,7.0,93,0.00,,,0.06,Wunderground v.1.15,2013-05-02 23:04:00,
2013-05-02 18:10:00,41.8,39.9,30.15,NNW,340,3.0,3.0,93,0.00,,,0.07,Wunderground v.1.15,2013-05-02 23:10:00,
2013-05-02 18:15:00,41.7,40.1,30.15,NNW,336,3.0,5.0,94,0.13,,,0.08,Wunderground v.1.15,2013-05-02 23:15:00,
2013-05-02 18:20:00,41.5,39.9,30.15,NW,307,4.0,5.0,94,0.09,,,0.08,Wunderground v.1.15,2013-05-02 23:20:00,
2013-05-02 18:26:00,41.4,39.8,30.15,NNE,12,4.0,7.0,94,0.07,,,0.09,Wunderground v.1.15,2013-05-02 23:26:00,
2013-05-02 18:31:00,41.1,39.5,30.15,North,360,3.0,4.0,94,0.07,,,0.09,Wunderground v.1.15,2013-05-02 23:31:00,
2013-05-02 18:36:00,40.9,39.3,30.15,NNE,32,4.0,8.0,94,0.06,,,0.10,Wunderground v.1.15,2013-05-02 23:36:00,
2013-05-02 18:42:00,40.6,39.0,30.15,North,351,4.0,8.0,94,0.06,,,0.10,Wunderground v.1.15,2013-05-02 23:42:00,
2013-05-02 18:47:00,40.5,38.9,30.16,NW,324,5.0,10.0,94,0.04,,,0.10,Wunderground v.1.15,2013-05-02 23:47:00,
2013-05-02 18:53:00,40.4,38.8,30.16,NNW,342,5.0,5.0,94,0.00,,,0.10,Wunderground v.1.15,2013-05-02 23:53:00,
2013-05-02 18:58:00,40.3,38.7,30.16,NNW,336,3.0,5.0,94,0.00,,,0.10,Wunderground v.1.15,2013-05-02 23:58:00,
2013-05-02 19:03:00,40.0,38.4,30.16,NW,325,4.0,11.0,94,0.00,,,0.10,Wunderground v.1.15,2013-05-03 00:03:00,
2013-05-02 19:09:00,39.9,38.3,30.16,WNW,302,5.0,11.0,94,0.00,,,0.10,Wunderground v.1.15,2013-05-03 00:09:00,
2013-05-02 19:15:00,39.7,38.1,30.17,NW,314,5.0,7.0,94,0.00,,,0.11,Wunderground v.1.15,2013-05-03 00:15:00,
2013-05-02 19:20:00,39.7,38.1,30.17,North,11,5.0,5.0,94,0.00,,,0.11,Wunderground v.1.15,2013-05-03 00:20:00,
2013-05-02 19:26:00,39.7,38.1,30.17,North,360,3.0,5.0,94,0.00,,,0.11,Wunderground v.1.15,2013-05-03 00:26:00,
2013-05-02 19:31:00,39.7,38.1,30.16,NW,315,3.0,6.0,94,0.00,,,0.11,Wunderground v.1.15,2013-05-03 00:31:00,
2013-05-02 19:37:00,39.5,37.9,30.17,NW,304,4.0,11.0,94,0.00,,,0.11,Wunderground v.1.15,2013-05-03 00:37:00,
2013-05-02 19:42:00,39.6,38.0,30.17,North,350,3.0,5.0,94,0.00,,,0.11,Wunderground v.1.15,2013-05-03 00:42:00,
2013-05-02 19:47:00,39.5,37.9,30.17,NW,323,3.0,5.0,94,0.00,,,0.11,Wunderground v.1.15,2013-05-03 00:47:00,
2013-05-02 19:53:00,39.4,37.8,30.17,NNW,333,3.0,7.0,94,0.00,,,0.12,Wunderground v.1.15,2013-05-03 00:53:00,
2013-05-02 19:58:00,39.2,37.6,30.17,NNW,330,4.0,7.0,94,0.00,,,0.12,Wunderground v.1.15,2013-05-03 00:58:00,
2013-05-02 20:04:00,39.1,37.5,30.17,NNW,348,4.0,10.0,94,0.00,,,0.12,Wunderground v.1.15,2013-05-03 01:04:00,
2013-05-02 20:09:00,39.1,37.5,30.18,NW,306,3.0,10.0,94,0.00,,,0.12,Wunderground v.1.15,2013-05-03 01:09:00,
2013-05-02 20:14:00,39.0,37.4,30.18,NNW,333,2.0,5.0,94,0.00,,,0.12,Wunderground v.1.15,2013-05-03 01:14:00,
2013-05-02 20:20:00,38.8,37.2,30.18,NE,49,3.0,3.0,94,0.00,,,0.12,Wunderground v.1.15,2013-05-03 01:20:00,
2013-05-02 20:26:00,38.7,37.1,30.18,West,278,3.0,6.0,94,0.00,,,0.12,Wunderground v.1.15,2013-05-03 01:26:00,
2013-05-02 20:31:00,38.8,37.5,30.18,NW,326,4.0,6.0,95,0.00,,,0.12,Wunderground v.1.15,2013-05-03 01:31:00,
2013-05-02 20:37:00,38.6,37.0,30.18,NW,319,4.0,8.0,94,0.00,,,0.12,Wunderground v.1.15,2013-05-03 01:37:00,
2013-05-02 20:42:00,38.5,36.9,30.18,WNW,301,4.0,4.0,94,0.00,,,0.12,Wunderground v.1.15,2013-05-03 01:42:00,
2013-05-02 20:47:00,38.4,37.1,30.19,NNW,328,3.0,5.0,95,0.00,,,0.12,Wunderground v.1.15,2013-05-03 01:47:00,
2013-05-02 20:53:00,38.4,37.1,30.19,NW,322,3.0,3.0,95,0.00,,,0.13,Wunderground v.1.15,2013-05-03 01:53:00,
2013-05-02 20:58:00,38.5,37.2,30.19,West,269,2.0,11.0,95,0.13,,,0.14,Wunderground v.1.15,2013-05-03 01:58:00,
2013-05-02 21:03:00,38.2,36.6,30.19,NW,316,3.0,5.0,94,0.06,,,0.14,Wunderground v.1.15,2013-05-03 02:03:00,
2013-05-02 21:09:00,38.0,36.4,30.19,North,360,4.0,6.0,94,0.06,,,0.15,Wunderground v.1.15,2013-05-03 02:09:00,
2013-05-02 21:14:00,37.7,36.4,30.19,NE,35,3.0,8.0,95,0.09,,,0.16,Wunderground v.1.15,2013-05-03 02:14:00,
2013-05-02 21:19:00,37.5,35.9,30.19,West,275,4.0,8.0,94,0.07,,,0.16,Wunderground v.1.15,2013-05-03 02:19:00,
2013-05-02 21:25:00,37.4,36.1,30.19,NNW,340,4.0,9.0,95,0.04,,,0.16,Wunderground v.1.15,2013-05-03 02:25:00,
2013-05-02 21:30:00,37.2,35.9,30.20,NNW,346,3.0,3.0,95,0.00,,,0.16,Wunderground v.1.15,2013-05-03 02:30:00,
2013-05-02 21:36:00,37.2,35.9,30.20,NNW,339,2.0,3.0,95,0.00,,,0.16,Wunderground v.1.15,2013-05-03 02:36:00,
2013-05-02 21:41:00,37.2,35.9,30.20,NNW,347,2.0,2.0,95,0.00,,,0.16,Wunderground v.1.15,2013-05-03 02:41:00,
2013-05-02 21:46:00,37.1,35.8,30.20,NW,322,2.0,6.0,95,0.00,,,0.16,Wunderground v.1.15,2013-05-03 02:46:00,
2013-05-02 21:51:00,37.0,35.7,30.20,NW,316,3.0,3.0,95,0.00,,,0.16,Wunderground v.1.15,2013-05-03 02:51:00,
2013-05-02 21:57:00,36.7,35.4,30.20,NW,316,4.0,9.0,95,0.00,,,0.16,Wunderground v.1.15,2013-05-03 02:57:00,
2013-05-02 22:02:00,36.5,36.5,30.20,WNW,300,5.0,7.0,100,0.00,,,0.16,Wunderground v.1.15,2013-05-03 03:02:00,
2013-05-02 22:07:00,36.2,34.9,30.20,West,261,4.0,7.0,95,0.00,,,0.16,Wunderground v.1.15,2013-05-03 03:07:00,
2013-05-02 22:13:00,36.0,34.7,30.19,NNW,327,4.0,7.0,95,0.00,,,0.17,Wunderground v.1.15,2013-05-03 03:13:00,
2013-05-02 22:18:00,35.8,34.5,30.19,NNE,28,4.0,7.0,95,0.00,,,0.17,Wunderground v.1.15,2013-05-03 03:18:00,
2013-05-02 22:24:00,35.6,34.3,30.19,NNW,327,3.0,7.0,95,0.00,,,0.17,Wunderground v.1.15,2013-05-03 03:24:00,
2013-05-02 22:30:00,35.5,34.2,30.19,NNW,336,3.0,4.0,95,0.00,,,0.17,Wunderground v.1.15,2013-05-03 03:30:00,
2013-05-02 22:35:00,35.4,34.1,30.19,NNW,330,3.0,5.0,95,0.00,,,0.17,Wunderground v.1.15,2013-05-03 03:35:00,
2013-05-02 22:40:00,35.2,33.9,30.20,NNW,344,4.0,4.0,95,0.00,,,0.18,Wunderground v.1.15,2013-05-03 03:40:00,
2013-05-02 22:46:00,35.0,33.7,30.20,North,355,4.0,5.0,95,0.00,,,0.18,Wunderground v.1.15,2013-05-03 03:46:00,
2013-05-02 22:51:00,34.8,33.5,30.20,NNE,23,5.0,7.0,95,0.00,,,0.18,Wunderground v.1.15,2013-05-03 03:51:00,
2013-05-02 22:57:00,34.6,33.3,30.20,NNW,332,4.0,7.0,95,0.00,,,0.18,Wunderground v.1.15,2013-05-03 03:57:00,
2013-05-02 23:01:00,34.6,33.3,30.20,NNW,348,4.0,5.0,95,0.00,,,0.18,Wunderground v.1.15,2013-05-03 04:01:00,
2013-05-02 23:02:00,34.6,33.3,30.20,NNW,337,4.0,5.0,95,0.00,,,0.18,Wunderground v.1.15,2013-05-03 04:02:00,
2013-05-02 23:07:00,34.5,33.2,30.20,North,355,4.0,6.0,95,0.00,,,0.19,Wunderground v.1.15,2013-05-03 04:07:00,
2013-05-02 23:08:00,34.5,33.2,30.19,North,355,4.0,6.0,95,0.00,,,0.19,Wunderground v.1.15,2013-05-03 04:08:00,
2013-05-02 23:09:00,34.4,33.1,30.19,NNW,339,4.0,6.0,95,0.00,,,0.19,Wunderground v.1.15,2013-05-03 04:09:00,
2013-05-02 23:14:00,34.4,33.1,30.19,NW,317,4.0,6.0,95,0.00,,,0.19,Wunderground v.1.15,2013-05-03 04:14:00,
2013-05-02 23:19:00,34.3,33.0,30.20,NNW,327,3.0,6.0,95,0.00,,,0.19,Wunderground v.1.15,2013-05-03 04:19:00,
2013-05-02 23:25:00,34.4,33.1,30.20,NNW,348,2.0,8.0,95,0.04,,,0.20,Wunderground v.1.15,2013-05-03 04:25:00,
2013-05-02 23:30:00,34.3,33.0,30.20,North,355,3.0,3.0,95,0.04,,,0.20,Wunderground v.1.15,2013-05-03 04:30:00,
2013-05-02 23:35:00,34.2,32.9,30.20,NW,319,4.0,4.0,95,0.04,,,0.20,Wunderground v.1.15,2013-05-03 04:35:00,
2013-05-02 23:40:00,34.2,32.9,30.20,NW,308,3.0,4.0,95,0.00,,,0.20,Wunderground v.1.15,2013-05-03 04:40:00,
2013-05-02 23:46:00,34.1,32.8,30.21,NE,43,3.0,9.0,95,0.00,,,0.20,Wunderground v.1.15,2013-05-03 04:46:00,
2013-05-02 23:51:00,33.9,32.6,30.20,North,360,4.0,4.0,95,0.00,,,0.20,Wunderground v.1.15,2013-05-03 04:51:00,
2013-05-02 23:56:00,33.9,32.6,30.20,NNW,331,4.0,6.0,95,0.00,,,0.20,Wunderground v.1.15,2013-05-03 04:56:00,